Content
SEND FEEDBACK

Daily
Averages
Monthly
Summary
United States of America

YELLOWSTONE NATIONAL PARK, WYOMING


Home > North America > United States > Wyoming
Elevation: 7938 feet     Latitude: 44 34N     Longitude: 110 24W

WEATHER
 
SELECT A DAY
Number of Records: 297,861;   Date Range: 1/1/95 - 10/20/14
 
SHARE

PRINT THIS DATA

[ ← Previous Day ]
WEATHER ALMANAC - NOVEMBER 16, 2013
[ Next Day → ]
[ °C ]   °F
Weather ElementAverageHighLow
Temperature20.3 °F24.1 °F (11:56 am)12.9 °F (11:56 pm)
Dewpoint16 °F19.9 °F (2:56 pm)8.1 °F (11:56 pm)
Humidity83.7 %92 % (4:56 pm)75 % (11:56 am)
Barometer29.45 in29.67 in (11:56 pm)29.37 in (1:56 pm)
Wind Speed5.8 mph11.5 mph (11:56 pm)
Wind Gust23 mph (11:56 am)
Weather ElementAverage
Wind DirectionENE (83.9 °)

Weather ElementTotal
Precipitation---
Heating Degree Days46.5 (Base 65)
Averaged from 23 records on November 16, 2013
WEATHER CONDITIONS BREAKOUT
WIND DIRECTION BREAKOUT
WEATHER BY HOUR - NOVEMBER 16, 2013
[ °C ]   °F
Local TimeTemperatureDewpointHumidityBarometerVisibilityWind DirectionWind SpeedGust SpeedPrecipitationEventsConditions
1:56 AM19.9 °F16.0 °F85 %29.49 inNorth
2:56 AM21.0 °F18.0 °F88 %29.47 inCalm
3:56 AM21.0 °F17.1 °F85 %29.45 inVariable3.5 mph
4:56 AM21.0 °F17.1 °F85 %29.44 inVariable4.6 mph
5:56 AM21.0 °F17.1 °F85 %29.40 inVariable6.9 mph16.1 mph
6:56 AM21.0 °F18.0 °F88 %29.41 inVariable4.6 mph
7:56 AM21.0 °F18.0 °F88 %29.41 inVariable3.5 mph
8:56 AM21.9 °F17.1 °F82 %29.41 inWest (270°)8.1 mph
9:56 AM23.0 °F17.1 °F78 %29.39 inVariable6.9 mph19.6 mph
10:56 AM21.9 °F16.0 °F78 %29.41 inVariable6.9 mph20.7 mph
11:56 AM24.1 °F17.1 °F75 %29.38 inWest (270°)8.1 mph23.0 mph
12:56 PM23.0 °F17.1 °F78 %29.38 inWSW (250°)10.4 mph18.4 mph
1:56 PM24.1 °F18.0 °F77 %29.37 inVariable4.6 mph
2:56 PM23.0 °F19.9 °F88 %29.38 inVariable5.8 mph
3:56 PM21.9 °F19.0 °F89 %29.38 inCalm
4:56 PM21.9 °F19.9 °F92 %29.38 inVariable4.6 mph
5:56 PM19.0 °F17.1 °F92 %29.42 inNW (310°)10.4 mph21.9 mph
6:56 PM18.0 °F14.0 °F84 %29.46 inCalm
7:56 PM17.1 °F12.0 °F81 %29.52 inVariable5.8 mph
8:56 PM17.1 °F12.9 °F84 %29.56 inVariable5.8 mph
9:56 PM16.0 °F12.0 °F84 %29.60 inWest (280°)8.1 mph
10:56 PM15.1 °F9.0 °F77 %29.64 inWest (280°)8.1 mph
11:56 PM12.9 °F8.1 °F81 %29.67 inWest (270°)11.5 mph18.4 mph
Hourly data recorded from KP60, located miles away from Yellowstone National Park, Wyoming







STORIES FROM OUR PARTNERS